Location: Winthrop
(48.4780°N, 120.1850°W)
Time: 21:31:29
(UTC-08:00)

Transit 4A - Visible Passes

Search period start: 05 February 2023 00:00
Search period end: 15 February 2023 00:00
Orbit: 870 x 973 km, 66.8° (Epoch: 05 February)

Date Brightness Start Highest point End Pass type
(mag) Time Alt. Az. Time Alt. Az. Time Alt. Az.
05 Feb 9.0 18:40:31 10° WSW 18:45:57 39° NW 18:51:25 10° NNE visible
05 Feb 10.0 20:30:36 10° NW 20:34:00 16° NNW 20:35:33 14° N visible
06 Feb 9.3 18:50:19 10° W 18:55:24 30° NW 19:00:33 10° NNE visible
06 Feb 10.1 20:40:48 10° NW 20:43:46 14° NNW 20:44:44 13° N visible
07 Feb 9.6 19:00:15 10° W 19:04:56 24° NNW 19:09:40 10° NNE visible
07 Feb 10.2 20:50:54 10° NNW 20:53:33 13° N 20:53:54 13° N visible
08 Feb 9.8 19:10:19 10° WNW 19:14:32 20° NNW 19:18:49 10° NNE visible
08 Feb 10.2 21:00:49 10° NNW 21:03:01 13° N 21:03:01 13° N visible
09 Feb 10.0 19:20:29 10° WNW 19:24:13 17° NNW 19:27:59 10° NNE visible
09 Feb 10.3 21:10:28 10° NNW 21:12:08 13° N 21:12:08 13° N visible
10 Feb 9.1 17:40:27 10° WSW 17:45:46 36° NW 17:51:09 10° NNE visible
10 Feb 10.1 19:30:42 10° NW 19:33:57 15° NNW 19:37:14 10° NNE visible
10 Feb 10.3 21:19:54 10° NNW 21:21:12 13° N 21:21:12 13° N visible
11 Feb 9.4 17:50:18 10° W 17:55:15 28° NW 18:00:17 10° NNE visible
11 Feb 10.1 19:40:52 10° NW 19:43:43 14° N 19:46:35 10° NNE visible
11 Feb 10.3 21:29:11 10° NNW 21:30:17 13° N 21:30:17 13° N visible
12 Feb 9.7 18:00:17 10° W 18:04:49 23° NNW 18:09:25 10° NNE visible
12 Feb 10.1 19:50:54 10° NNW 19:53:31 13° N 19:55:51 11° NNE visible
12 Feb 10.3 21:38:22 10° NNW 21:39:21 13° N 21:39:21 13° N visible
13 Feb 9.8 18:10:23 10° WNW 18:14:27 19° NNW 18:18:34 10° NNE visible
13 Feb 10.0 20:00:44 10° NNW 20:03:19 13° N 20:04:54 12° NNE visible
13 Feb 10.4 21:47:31 10° NNW 21:48:25 13° NNW 21:48:25 13° NNW visible
14 Feb 9.9 18:20:34 10° WNW 18:24:08 16° NNW 18:27:45 10° NNE visible
14 Feb 10.0 20:10:18 10° NNW 20:13:08 13° N 20:13:57 13° NNE visible
14 Feb 10.4 21:56:39 10° NNW 21:57:28 13° NNW 21:57:28 13° NNW visible
